| time (UTC) | temp F | wind direction | speed knots | gust knots | rain 1hr in | rain 24hr in | rain mn in | humidity % | barometer mb |
| 20260504214958 | 77 | 211 | 15.6 | 20.0 | 0.00 | 0.00 | 0.00 | 36 | 1002.7 |
| 20260504214458 | 77 | 227 | 13.0 | 22.6 | 0.00 | 0.00 | 0.00 | 39 | 1002.8 |
| 20260504213958 | 76 | 206 | 20.0 | 22.6 | 0.00 | 0.00 | 0.00 | 38 | 1002.8 |
| 20260504213458 | 77 | 229 | 16.5 | 21.7 | 0.00 | 0.00 | 0.00 | 38 | 1002.8 |
| 20260504212958 | 77 | 187 | 21.7 | 21.7 | 0.00 | 0.00 | 0.00 | 37 | 1002.9 |
| 20260504212458 | 77 | 180 | 13.0 | 21.7 | 0.00 | 0.00 | 0.00 | 40 | 1002.9 |
| 20260504211958 | 77 | 219 | 14.8 | 21.7 | 0.00 | 0.00 | 0.00 | 40 | 1003.1 |
| 20260504211458 | 77 | 221 | 18.2 | 20.0 | 0.00 | 0.00 | 0.00 | 38 | 1003.1 |
| 20260504210958 | 77 | 200 | 13.9 | 20.0 | 0.00 | 0.00 | 0.00 | 37 | 1003.1 |
| 20260504210458 | 77 | 208 | 12.2 | 22.6 | 0.00 | 0.00 | 0.00 | 37 | 1003.2 |
| 20260504205958 | 77 | 194 | 17.4 | 22.6 | 0.00 | 0.00 | 0.00 | 38 | 1003.3 |
| 20260504205458 | 77 | 195 | 15.6 | 21.7 | 0.00 | 0.00 | 0.00 | 37 | 1003.1 |
| 20260504204958 | 77 | 205 | 16.5 | 21.7 | 0.00 | 0.00 | 0.00 | 38 | 1003.3 |
| 20260504204458 | 77 | 208 | 16.5 | 21.7 | 0.00 | 0.00 | 0.00 | 38 | 1003.3 |
| 20260504203958 | 76 | 192 | 9.6 | 22.6 | 0.00 | 0.00 | 0.00 | 39 | 1003.5 |
| 20260504203458 | 76 | 212 | 13.0 | 22.6 | 0.00 | 0.00 | 0.00 | 37 | 1003.7 |
| 20260504202958 | 76 | 251 | 8.7 | 20.0 | 0.00 | 0.00 | 0.00 | 36 | 1003.9 |
| 20260504202459 | 77 | 204 | 7.8 | 21.7 | 0.00 | 0.00 | 0.00 | 43 | 1004.0 |
| 20260504201958 | 76 | 202 | 14.8 | 21.7 | 0.00 | 0.00 | 0.00 | 39 | 1004.0 |
| 20260504201458 | 76 | 222 | 10.4 | 22.6 | 0.00 | 0.00 | 0.00 | 38 | 1004.0 |
| 20260504200958 | 75 | 205 | 14.8 | 23.5 | 0.00 | 0.00 | 0.00 | 35 | 1004.1 |
| 20260504200458 | 77 | 243 | 17.4 | 23.5 | 0.00 | 0.00 | 0.00 | 37 | 1004.3 |
| 20260504195958 | 77 | 241 | 13.0 | 18.2 | 0.00 | 0.00 | 0.00 | 39 | 1004.3 |
| 20260504195458 | 77 | 218 | 17.4 | 22.6 | 0.00 | 0.00 | 0.00 | 42 | 1004.2 |
| 20260504194958 | 76 | 217 | 13.0 | 22.6 | 0.00 | 0.00 | 0.00 | 39 | 1004.4 |
| 20260504194458 | 76 | 215 | 14.8 | 23.5 | 0.00 | 0.00 | 0.00 | 41 | 1004.4 |
| 20260504193958 | 76 | 220 | 14.8 | 23.5 | 0.00 | 0.00 | 0.00 | 37 | 1004.4 |
| 20260504193458 | 76 | 216 | 12.2 | 21.7 | 0.00 | 0.00 | 0.00 | 38 | 1004.6 |
| 20260504192958 | 76 | 206 | 15.6 | 19.1 | 0.00 | 0.00 | 0.00 | 38 | 1004.6 |
| 20260504192503 | 76 | 228 | 17.4 | 20.0 | 0.00 | 0.00 | 0.00 | 38 | 1004.7 |
| 20260504191958 | 75 | 230 | 14.8 | 21.7 | 0.00 | 0.00 | 0.00 | 37 | 1004.9 |
| 20260504191458 | 76 | 207 | 13.9 | 21.7 | 0.00 | 0.00 | 0.00 | 42 | 1004.9 |
| 20260504190958 | 76 | 219 | 11.3 | 21.7 | 0.00 | 0.00 | 0.00 | 39 | 1004.9 |
| 20260504190458 | 76 | 193 | 13.0 | 19.1 | 0.00 | 0.00 | 0.00 | 40 | 1005.0 |
| 20260504185958 | 75 | 219 | 13.0 | 20.9 | 0.00 | 0.00 | 0.00 | 39 | 1005.1 |
| 20260504185458 | 75 | 235 | 14.8 | 20.9 | 0.00 | 0.00 | 0.00 | 38 | 1005.2 |
| 20260504184958 | 76 | 219 | 14.8 | 19.1 | 0.00 | 0.00 | 0.00 | 40 | 1005.2 |
| 20260504184458 | 75 | 205 | 13.9 | 20.0 | 0.00 | 0.00 | 0.00 | 42 | 1005.3 |
| 20260504183958 | 75 | 223 | 12.2 | 20.9 | 0.00 | 0.00 | 0.00 | 44 | 1005.4 |
| 20260504183458 | 75 | 243 | 14.8 | 22.6 | 0.00 | 0.00 | 0.00 | 39 | 1005.4 |
| 20260504182959 | 75 | 223 | 15.6 | 22.6 | 0.00 | 0.00 | 0.00 | 42 | 1005.4 |
| 20260504182458 | 75 | 262 | 15.6 | 20.9 | 0.00 | 0.00 | 0.00 | 39 | 1005.6 |
| 20260504181958 | 75 | 235 | 14.8 | 20.9 | 0.00 | 0.00 | 0.00 | 41 | 1005.6 |
| 20260504181458 | 75 | 255 | 17.4 | 20.9 | 0.00 | 0.00 | 0.00 | 39 | 1005.7 |
| 20260504180958 | 75 | 215 | 10.4 | 20.9 | 0.00 | 0.00 | 0.00 | 43 | 1005.7 |
| 20260504180458 | 74 | 191 | 16.5 | 20.9 | 0.00 | 0.00 | 0.00 | 39 | 1005.7 |
| 20260504175959 | 74 | 216 | 8.7 | 22.6 | 0.00 | 0.00 | 0.00 | 42 | 1005.8 |
| 20260504175459 | 74 | 220 | 14.8 | 22.6 | 0.00 | 0.00 | 0.00 | 39 | 1005.9 |
| 20260504174958 | 74 | 197 | 13.9 | 21.7 | 0.00 | 0.00 | 0.00 | 40 | 1005.9 |
| 20260504174458 | 74 | 229 | 3.5 | 20.9 | 0.00 | 0.00 | 0.00 | 43 | 1006.1 |
| 20260504173958 | 74 | 217 | 16.5 | 23.5 | 0.00 | 0.00 | 0.00 | 43 | 1006.0 |
| 20260504173458 | 73 | 239 | 18.2 | 23.5 | 0.00 | 0.00 | 0.00 | 42 | 1006.1 |
| 20260504172958 | 74 | 228 | 13.9 | 21.7 | 0.00 | 0.00 | 0.00 | 47 | 1006.4 |
| 20260504172458 | 74 | 237 | 12.2 | 20.9 | 0.00 | 0.00 | 0.00 | 43 | 1006.3 |
| 20260504171958 | 74 | 224 | 13.9 | 19.1 | 0.00 | 0.00 | 0.00 | 43 | 1006.4 |
| 20260504171458 | 73 | 236 | 13.9 | 20.9 | 0.00 | 0.00 | 0.00 | 47 | 1006.4 |
| 20260504170958 | 73 | 232 | 13.9 | 20.9 | 0.00 | 0.00 | 0.00 | 43 | 1006.5 |
| 20260504170458 | 73 | 250 | 14.8 | 20.9 | 0.00 | 0.00 | 0.00 | 43 | 1006.6 |
| 20260504150959 | 68 | 222 | 8.7 | 13.0 | 0.00 | 0.00 | 0.00 | 55 | 1007.3 |
| 20260504150458 | 67 | 208 | 6.1 | 13.0 | 0.00 | 0.00 | 0.00 | 55 | 1007.4 |
| 20260504140958 | 66 | 216 | 7.8 | 13.0 | 0.00 | 0.00 | 0.00 | 60 | 1007.7 |
| 20260504140459 | 65 | 234 | 7.0 | 13.0 | 0.00 | 0.00 | 0.00 | 59 | 1007.7 |
| 20260504130459 | 62 | 220 | 8.7 | 13.9 | 0.00 | 0.00 | 0.00 | 64 | 1007.6 |
| 20260504110458 | 58 | 232 | 7.0 | 9.6 | 0.00 | 0.00 | 0.00 | 69 | 1006.7 |
| 20260504100458 | 59 | 226 | 4.3 | 7.8 | 0.00 | 0.00 | 0.00 | 68 | 1006.9 |
| 20260504081958 | 60 | 226 | 5.2 | 7.0 | 0.00 | 0.00 | 0.00 | 65 | 1006.9 |
| 20260504081458 | 60 | 215 | 6.1 | 7.0 | 0.00 | 0.00 | 0.00 | 66 | 1007.3 |
| 20260504080958 | 60 | 204 | 4.3 | 7.0 | 0.00 | 0.00 | 0.00 | 66 | 1006.8 |
| 20260504080458 | 60 | 211 | 4.3 | 7.0 | 0.00 | 0.00 | 0.00 | 65 | 1007.1 |
| 20260504050458 | 63 | 197 | 7.0 | 8.7 | 0.00 | 0.00 | 0.00 | 59 | 1008.1 |
| 20260504045958 | 64 | 206 | 7.8 | 8.7 | 0.00 | 0.00 | 0.00 | 59 | 1008.1 |
| 20260504045458 | 64 | 207 | 7.0 | 8.7 | 0.00 | 0.00 | 0.00 | 59 | 1008.1 |
| 20260504044958 | 64 | 191 | 7.8 | 9.6 | 0.00 | 0.00 | 0.00 | 59 | 1008.1 |
| 20260504044458 | 64 | 208 | 7.8 | 9.6 | 0.00 | 0.00 | 0.00 | 59 | 1008.1 |
| 20260504043958 | 64 | 203 | 6.1 | 8.7 | 0.00 | 0.00 | 0.00 | 58 | 1008.0 |
| 20260504043458 | 64 | 195 | 6.1 | 7.8 | 0.00 | 0.00 | 0.00 | 58 | 1008.2 |
| 20260504042958 | 64 | 198 | 5.2 | 8.7 | 0.00 | 0.00 | 0.00 | 58 | 1008.3 |
| 20260504042459 | 64 | 198 | 6.1 | 8.7 | 0.00 | 0.00 | 0.00 | 58 | 1008.3 |
| 20260504041958 | 64 | 204 | 6.1 | 8.7 | 0.00 | 0.00 | 0.00 | 58 | 1008.3 |
| 20260504041458 | 64 | 208 | 6.1 | 8.7 | 0.00 | 0.00 | 0.00 | 58 | 1008.3 |
| 20260504040958 | 63 | 199 | 6.1 | 7.0 | 0.00 | 0.00 | 0.00 | 58 | 1008.4 |
| 20260504040458 | 63 | 209 | 7.0 | 7.0 | 0.00 | 0.00 | 0.00 | 59 | 1008.4 |
| 20260504035958 | 63 | 196 | 5.2 | 7.0 | 0.00 | 0.00 | 0.00 | 60 | 1008.4 |
| 20260504035458 | 64 | 190 | 4.3 | 6.1 | 0.00 | 0.00 | 0.00 | 61 | 1008.5 |
| 20260504034958 | 64 | 193 | 5.2 | 7.0 | 0.00 | 0.00 | 0.00 | 61 | 1008.5 |
| 20260504034458 | 64 | 188 | 5.2 | 7.0 | 0.00 | 0.00 | 0.00 | 60 | 1008.5 |
| 20260504033958 | 64 | 194 | 5.2 | 7.0 | 0.00 | 0.00 | 0.00 | 59 | 1008.5 |
| 20260504033458 | 65 | 190 | 6.1 | 6.1 | 0.00 | 0.00 | 0.00 | 59 | 1008.4 |
| 20260504032958 | 65 | 187 | 5.2 | 6.1 | 0.00 | 0.00 | 0.00 | 59 | 1008.5 |
| 20260504032458 | 65 | 187 | 5.2 | 6.1 | 0.00 | 0.00 | 0.00 | 60 | 1008.5 |
| 20260504031958 | 65 | 188 | 5.2 | 6.1 | 0.00 | 0.00 | 0.00 | 59 | 1008.5 |
| 20260504031458 | 65 | 188 | 4.3 | 6.1 | 0.00 | 0.00 | 0.00 | 59 | 1008.5 |
| 20260504030958 | 65 | 197 | 5.2 | 7.0 | 0.00 | 0.00 | 0.00 | 59 | 1008.4 |
| 20260504030458 | 65 | 188 | 5.2 | 7.0 | 0.00 | 0.00 | 0.00 | 59 | 1008.3 |
| 20260504025958 | 65 | 184 | 5.2 | 6.1 | 0.00 | 0.00 | 0.00 | 58 | 1008.4 |
| 20260504025458 | 64 | 192 | 5.2 | 6.1 | 0.00 | 0.00 | 0.00 | 58 | 1008.4 |
| 20260504024958 | 64 | 196 | 3.5 | 7.0 | 0.00 | 0.00 | 0.00 | 59 | 1008.3 |
| 20260504024458 | 66 | 198 | 4.3 | 7.0 | 0.00 | 0.00 | 0.00 | 58 | 1008.5 |
| 20260504023959 | 65 | 179 | 6.1 | 7.0 | 0.00 | 0.00 | 0.00 | 59 | 1008.4 |
| 20260504023458 | 66 | 190 | 6.1 | 7.0 | 0.00 | 0.00 | 0.00 | 59 | 1008.3 |
| 20260504022958 | 65 | 186 | 6.1 | 7.0 | 0.00 | 0.00 | 0.00 | 59 | 1008.3 |
| 20260504022458 | 65 | 197 | 5.2 | 7.0 | 0.00 | 0.00 | 0.00 | 58 | 1008.5 |
| 20260504021958 | 66 | 190 | 5.2 | 6.1 | 0.00 | 0.00 | 0.00 | 57 | 1008.3 |
| 20260504021458 | 66 | 187 | 5.2 | 6.1 | 0.00 | 0.00 | 0.00 | 57 | 1008.3 |
| 20260504020958 | 67 | 188 | 5.2 | 6.1 | 0.00 | 0.00 | 0.00 | 57 | 1008.3 |
| 20260504020458 | 65 | 183 | 5.2 | 6.1 | 0.00 | 0.00 | 0.00 | 56 | 1008.4 |
| 20260504015958 | 67 | 191 | 5.2 | 6.1 | 0.00 | 0.00 | 0.00 | 57 | 1008.0 |
| 20260504015458 | 67 | 193 | 5.2 | 6.1 | 0.00 | 0.00 | 0.00 | 55 | 1008.3 |
| 20260504014959 | 67 | 193 | 4.3 | 6.1 | 0.00 | 0.00 | 0.00 | 54 | 1008.3 |
| 20260504014458 | 68 | 186 | 6.1 | 6.1 | 0.00 | 0.00 | 0.00 | 51 | 1008.3 |
| 20260504013958 | 68 | 171 | 4.3 | 4.3 | 0.00 | 0.00 | 0.00 | 50 | 1008.2 |
| 20260504013458 | 68 | 172 | 4.3 | 5.2 | 0.00 | 0.00 | 0.00 | 51 | 1008.2 |
| 20260504012958 | 69 | 176 | 4.3 | 6.1 | 0.00 | 0.00 | 0.00 | 55 | 1008.1 |
| 20260504012458 | 69 | 180 | 5.2 | 6.1 | 0.00 | 0.00 | 0.00 | 51 | 1008.1 |
| 20260504011958 | 70 | 180 | 5.2 | 6.1 | 0.00 | 0.00 | 0.00 | 49 | 1008.0 |
| 20260504011458 | 69 | 181 | 6.1 | 6.1 | 0.00 | 0.00 | 0.00 | 49 | 1008.0 |
| 20260504010958 | 71 | 186 | 5.2 | 5.2 | 0.00 | 0.00 | 0.00 | 48 | 1008.0 |
| 20260504010458 | 71 | 186 | 5.2 | 5.2 | 0.00 | 0.00 | 0.00 | 47 | 1007.9 |
| 20260504005958 | 72 | 195 | 4.3 | 5.2 | 0.00 | 0.00 | 0.00 | 47 | 1007.9 |
| 20260504005459 | 72 | 189 | 5.2 | 5.2 | 0.00 | 0.00 | 0.00 | 47 | 1007.9 |
| 20260504004958 | 73 | 182 | 4.3 | 5.2 | 0.00 | 0.00 | 0.00 | 44 | 1007.9 |
| 20260504004458 | 73 | 195 | 4.3 | 5.2 | 0.00 | 0.00 | 0.00 | 43 | 1007.9 |
| 20260504003958 | 72 | 202 | 4.3 | 7.0 | 0.00 | 0.00 | 0.00 | 47 | 1008.0 |
| 20260504003458 | 74 | 213 | 4.3 | 7.0 | 0.00 | 0.00 | 0.00 | 42 | 1008.0 |
| 20260504002958 | 74 | 227 | 6.1 | 7.0 | 0.00 | 0.00 | 0.00 | 39 | 1008.0 |
| 20260504002458 | 75 | 227 | 4.3 | 7.0 | 0.00 | 0.00 | 0.00 | 38 | 1008.0 |
| 20260504001958 | 75 | 224 | 4.3 | 7.0 | 0.00 | 0.00 | 0.00 | 38 | 1008.1 |
| 20260504001458 | 75 | 228 | 5.2 | 7.0 | 0.00 | 0.00 | 0.00 | 39 | 1008.0 |
| 20260504000958 | 75 | 223 | 3.5 | 6.1 | 0.00 | 0.00 | 0.00 | 38 | 1008.0 |
| 20260504000458 | 76 | 223 | 6.1 | 7.0 | 0.00 | 0.00 | 0.00 | 38 | 1008.1 |
| 20260503235958 | 75 | 229 | 5.2 | 8.7 | 0.00 | 0.00 | 0.00 | 36 | 1008.0 |
| 20260503235458 | 76 | 228 | 6.1 | 9.6 | 0.00 | 0.00 | 0.00 | 35 | 1007.9 |
| 20260503234958 | 76 | 228 | 4.3 | 12.2 | 0.00 | 0.00 | 0.00 | 35 | 1008.0 |
| 20260503234458 | 76 | 221 | 5.2 | 12.2 | 0.00 | 0.00 | 0.00 | 34 | 1007.9 |
| 20260503233958 | 75 | 235 | 7.8 | 10.4 | 0.00 | 0.00 | 0.00 | 33 | 1007.8 |
| 20260503233458 | 76 | 235 | 5.2 | 10.4 | 0.00 | 0.00 | 0.00 | 33 | 1007.9 |
| 20260503232958 | 76 | 220 | 6.1 | 10.4 | 0.00 | 0.00 | 0.00 | 35 | 1007.9 |
| 20260503232458 | 75 | 222 | 6.1 | 10.4 | 0.00 | 0.00 | 0.00 | 34 | 1007.9 |
| 20260503231958 | 76 | 214 | 7.0 | 12.2 | 0.00 | 0.00 | 0.00 | 33 | 1008.0 |
| 20260503231459 | 76 | 215 | 9.6 | 12.2 | 0.00 | 0.00 | 0.00 | 35 | 1008.1 |
| 20260503230959 | 76 | 225 | 7.0 | 11.3 | 0.00 | 0.00 | 0.00 | 34 | 1008.2 |
| 20260503230458 | 76 | 237 | 8.7 | 11.3 | 0.00 | 0.00 | 0.00 | 39 | 1008.2 |
| 20260503225958 | 76 | 193 | 6.1 | 11.3 | 0.00 | 0.00 | 0.00 | 34 | 1008.2 |
| 20260503225458 | 76 | 244 | 8.7 | 12.2 | 0.00 | 0.00 | 0.00 | 34 | 1008.3 |
| 20260503224958 | 75 | 244 | 7.8 | 13.0 | 0.00 | 0.00 | 0.00 | 35 | 1008.3 |
| 20260503224458 | 75 | 236 | 8.7 | 13.0 | 0.00 | 0.00 | 0.00 | 36 | 1008.3 |
| 20260503223958 | 76 | 226 | 9.6 | 13.0 | 0.00 | 0.00 | 0.00 | 41 | 1008.4 |
| 20260503223458 | 77 | 204 | 11.3 | 13.0 | 0.00 | 0.00 | 0.00 | 35 | 1008.3 |
| 20260503222958 | 77 | 261 | 6.1 | 13.0 | 0.00 | 0.00 | 0.00 | 35 | 1008.4 |
| 20260503222458 | 76 | 204 | 11.3 | 13.0 | 0.00 | 0.00 | 0.00 | 32 | 1008.4 |
| 20260503221958 | 76 | 223 | 8.7 | 13.0 | 0.00 | 0.00 | 0.00 | 33 | 1008.5 |
| 20260503221458 | 75 | 222 | 10.4 | 13.0 | 0.00 | 0.00 | 0.00 | 34 | 1008.5 |
| 20260503220958 | 77 | 226 | 6.1 | 13.9 | 0.00 | 0.00 | 0.00 | 33 | 1008.6 |
| 20260503220458 | 76 | 259 | 9.6 | 13.9 | 0.00 | 0.00 | 0.00 | 38 | 1008.7 |
| 20260503215958 | 76 | 244 | 11.3 | 13.9 | 0.00 | 0.00 | 0.00 | 34 | 1008.8 |
| 20260503215459 | 75 | 244 | 7.8 | 12.2 | 0.00 | 0.00 | 0.00 | 32 | 1008.7 |